"startDT [UTC]","vpos","CH4 [ppm]","stdev(CH4) [ppm]","CO2 [ppm]","stdev(CO2) [ppm]","H2O [ppm]","stdev(H2O)","p_LGR [torr]","T_LGR [C]","mt1_LGR [us]","mt2_LGR [us]","T_ECpre [C]","T_EC1 [C]","T_EC2 [C]","p_inlet [hPa]","p_in [hPa]","p_out [hPa]","T_inlet [C]","RH_inlet [%]","dwpt_inlet [C]","T_vent [C]","RH_vent [%]","dwpt_vent [C]","flow_vent [l min-1]","flow_inlet [l min-1]","dwpt_sample [C]","T_room [C]"
2012-06-12 00:00:00,0.0,,,,,,,,,,,1.05,-24.96,4.53,-66,559,-944,31.3,18.2,4.3,31.2,1.0,-31.0,5.73,2.27,-25.7,35.2
2012-06-12 00:01:00,0.0,,,,,,,,,,,1.07,-24.95,2.56,-66,559,-944,31.3,18.1,4.3,31.2,1.0,-31.0,5.73,2.29,-25.7,35.2
2012-06-12 00:02:00,0.0,,,,,,,,,,,1.14,-24.94,0.69,-66,559,-944,31.3,18.2,4.3,31.2,1.0,-31.0,5.73,2.31,-25.8,35.3
2012-06-12 00:03:00,0.0,,,,,,,,,,,1.06,-24.94,-1.07,-66,559,-944,31.3,18.4,4.5,31.3,1.0,-31.0,5.73,2.30,-25.8,35.3
2012-06-12 00:04:00,0.0,,,,,,,,,,,1.03,-24.93,-2.74,-66,559,-944,31.3,18.2,4.3,31.2,1.0,-31.0,5.73,2.28,-25.8,35.2
2012-06-12 00:05:00,0.0,,,,,,,,,,,1.12,-24.93,-4.21,-66,559,-944,31.3,18.2,4.3,31.2,1.0,-31.0,5.73,2.28,-25.8,35.3
2012-06-12 00:06:00,0.0,,,,,,,,,,,1.11,-24.93,-5.42,-66,559,-944,31.3,18.0,4.2,31.2,1.0,-31.0,5.73,2.29,-25.7,35.3
2012-06-12 00:07:00,0.0,,,,,,,,,,,1.04,-24.93,-6.85,-66,559,-944,31.3,17.9,4.0,31.3,1.0,-30.9,5.73,2.31,-25.7,35.3
2012-06-12 00:08:00,0.0,,,,,,,,,,,1.03,-24.92,-8.13,-66,559,-944,31.3,17.9,4.1,31.3,1.0,-31.0,5.73,2.30,-25.7,35.3
2012-06-12 00:09:00,0.0,,,,,,,,,,,1.12,-24.92,-9.27,-66,559,-944,31.3,17.9,4.1,31.3,1.0,-31.0,5.73,2.28,-25.7,35.3
2012-06-12 00:10:00,0.0,,,,,,,,,,,1.10,-24.92,-10.34,-66,559,-944,31.3,17.9,4.1,31.3,1.0,-31.0,5.73,2.28,-25.7,35.4
2012-06-12 00:11:00,0.0,,,,,,,,,,,1.01,-24.93,-11.35,-66,559,-944,31.3,18.0,4.2,31.3,1.0,-31.0,5.73,2.28,-25.7,35.4
2012-06-12 00:12:00,0.0,,,,,,,,,,,1.05,-24.93,-12.40,-66,559,-944,31.3,17.9,4.1,31.3,1.0,-31.0,5.73,2.31,-25.7,35.3
2012-06-12 00:13:00,0.0,1.8846,0.0008,399.62,0.17,2.5,9.0,138.08,30.08,24.63,36.34,1.11,-24.94,-13.33,-66,559,-944,31.3,18.0,4.1,31.3,1.0,-31.0,5.73,2.30,-25.7,35.4
2012-06-12 00:14:00,0.0,1.8849,0.0008,399.53,0.18,5.6,13.4,138.08,30.08,24.63,36.35,1.10,-24.95,-14.24,-66,559,-944,31.3,18.0,4.2,31.3,1.0,-30.9,5.73,2.28,-25.7,35.3
2012-06-12 00:15:00,0.0,1.8846,0.0008,399.60,0.24,6.3,14.3,138.07,30.08,24.64,36.35,1.01,-24.95,-15.12,-66,559,-944,31.4,18.2,4.3,31.3,1.0,-30.9,5.73,2.28,-25.7,35.3
2012-06-12 00:16:00,0.0,,,,,,,,,,,1.06,-24.96,-15.96,-66,559,-944,31.3,18.3,4.4,31.3,1.0,-31.0,5.73,2.28,-25.7,35.4
2012-06-12 00:17:00,0.0,,,,,,,,,,,1.11,-24.97,-16.69,-66,559,-944,31.3,18.5,4.5,31.3,1.0,-31.1,5.73,2.30,-25.7,35.4
2012-06-12 00:18:00,0.0,,,,,,,,,,,1.06,-24.98,-17.34,-66,559,-944,31.4,18.6,4.7,31.3,1.0,-31.2,5.73,2.30,-25.7,35.4
2012-06-12 00:19:00,0.0,,,,,,,,,,,1.01,-24.99,-18.04,-66,559,-944,31.3,18.7,4.7,31.3,1.0,-31.2,5.73,2.28,-25.7,35.3
2012-06-12 00:20:00,0.0,,,,,,,,,,,1.05,-25.01,-18.70,-66,559,-944,31.3,19.0,4.9,31.3,1.0,-31.3,5.73,2.27,-25.8,35.3
2012-06-12 00:21:00,0.0,,,,,,,,,,,1.11,-25.02,-19.33,-66,559,-944,31.3,18.9,4.8,31.3,1.0,-31.2,5.73,2.28,-25.7,35.3
2012-06-12 00:22:00,0.0,,,,,,,,,,,1.08,-25.02,-19.91,-66,559,-944,31.3,19.1,5.0,31.3,1.0,-31.2,5.73,2.30,-25.7,35.3
2012-06-12 00:23:00,0.0,,,,,,,,,,,1.03,-25.04,-20.46,-66,559,-944,31.3,19.0,4.9,31.3,1.0,-31.3,5.73,2.30,-25.7,35.3
2012-06-12 00:24:00,0.0,,,,,,,,,,,1.01,-25.05,-20.97,-66,559,-944,31.4,19.0,4.9,31.3,1.0,-31.3,5.73,2.28,-25.7,35.3
2012-06-12 00:25:00,0.0,,,,,,,,,,,1.07,-25.05,-21.45,-66,559,-944,31.3,18.9,4.9,31.3,1.0,-31.3,5.73,2.27,-25.7,35.3
2012-06-12 00:26:00,0.0,,,,,,,,,,,1.11,-25.06,-21.91,-66,559,-944,31.3,18.7,4.7,31.3,1.0,-31.3,5.73,2.29,-25.7,35.3
2012-06-12 00:27:00,0.0,,,,,,,,,,,1.05,-25.08,-22.33,-66,559,-944,31.4,18.5,4.6,31.3,1.0,-31.2,5.73,2.30,-25.7,35.3
2012-06-12 00:28:00,0.0,,,,,,,,,,,1.01,-25.09,-22.74,-66,559,-944,31.4,18.3,4.4,31.3,1.0,-31.2,5.73,2.30,-25.7,35.3
2012-06-12 00:29:00,0.0,,,,,,,,,,,1.04,-25.10,-23.11,-66,559,-944,31.4,18.2,4.3,31.3,1.0,-31.2,5.73,2.28,-25.7,35.2
2012-06-12 00:30:00,0.0,,,,,,,,,,,1.09,-25.11,-23.46,-66,559,-944,31.4,18.3,4.4,31.3,1.0,-31.3,5.73,2.28,-25.8,35.2
2012-06-12 00:31:00,0.0,,,,,,,,,,,1.09,-25.12,-23.78,-66,559,-944,31.4,18.2,4.4,31.3,1.0,-31.3,5.73,2.29,-25.8,35.3
2012-06-12 00:32:00,0.0,,,,,,,,,,,1.04,-25.13,-24.08,-66,559,-944,31.4,18.2,4.3,31.3,1.0,-31.3,5.73,2.30,-25.7,35.3
2012-06-12 00:33:00,0.0,,,,,,,,,,,1.01,-25.14,-24.37,-66,559,-944,31.4,18.3,4.4,31.3,1.0,-31.3,5.73,2.30,-25.7,35.3
2012-06-12 00:34:00,0.0,,,,,,,,,,,1.05,-25.16,-24.65,-66,559,-944,31.4,18.3,4.4,31.3,1.0,-31.2,5.73,2.28,-25.8,35.2
2012-06-12 00:35:00,0.0,,,,,,,,,,,1.09,-25.17,-24.91,-66,559,-943,31.3,18.4,4.5,31.3,1.0,-31.2,5.73,2.27,-25.8,35.2
2012-06-12 00:36:00,0.0,,,,,,,,,,,1.08,-25.17,-25.16,-66,559,-944,31.3,18.5,4.5,31.3,1.0,-31.2,5.73,2.29,-25.8,35.2
2012-06-12 00:37:00,0.0,,,,,,,,,,,1.01,-25.18,-24.98,-66,559,-944,31.3,18.7,4.7,31.3,1.0,-31.3,5.73,2.30,-25.8,35.2
2012-06-12 00:38:00,0.0,,,,,,,,,,,1.00,-25.19,-24.99,-66,559,-944,31.3,18.6,4.6,31.3,1.0,-31.3,5.73,2.29,-25.8,35.2
2012-06-12 00:39:00,0.0,,,,,,,,,,,1.01,-25.20,-25.17,-66,559,-944,31.3,18.5,4.5,31.3,1.0,-31.3,5.73,2.28,-25.8,35.2
2012-06-12 00:40:00,0.0,,,,,,,,,,,1.01,-25.21,-25.05,-66,559,-944,31.3,18.6,4.6,31.3,1.0,-31.3,5.73,2.28,-25.8,35.2
2012-06-12 00:41:00,0.0,,,,,,,,,,,1.11,-25.23,-25.00,-66,559,-944,31.3,18.6,4.6,31.3,1.0,-31.3,5.73,2.29,-25.8,35.2
2012-06-12 00:42:00,0.0,,,,,,,,,,,1.07,-25.23,-25.18,-66,559,-944,31.3,18.6,4.6,31.3,1.0,-31.3,5.73,2.30,-25.8,35.3
2012-06-12 00:43:00,0.0,,,,,,,,,,,1.02,-25.24,-25.11,-66,559,-944,31.3,18.7,4.7,31.3,1.0,-31.5,5.73,2.29,-25.8,35.3
2012-06-12 00:44:00,0.0,,,,,,,,,,,1.02,-25.25,-25.02,-66,559,-944,31.3,18.7,4.7,31.3,1.0,-31.5,5.73,2.28,-25.8,35.3
2012-06-12 00:45:00,0.0,,,,,,,,,,,1.00,-25.26,-25.19,-66,559,-944,31.3,18.7,4.7,31.3,1.0,-31.6,5.73,2.28,-25.8,35.3
2012-06-12 00:46:00,0.0,,,,,,,,,,,0.97,-25.26,-25.16,-66,559,-944,31.3,18.6,4.7,31.3,0.9,-31.6,5.73,2.29,-25.8,35.3
2012-06-12 00:47:00,0.0,,,,,,,,,,,1.09,-25.27,-25.02,-66,559,-944,31.4,18.8,4.8,31.3,1.0,-31.6,5.73,2.30,-25.8,35.3
2012-06-12 00:48:00,0.0,,,,,,,,,,,1.09,-25.29,-25.19,-66,559,-944,31.3,18.7,4.7,31.3,1.0,-31.5,5.73,2.29,-25.8,35.3
2012-06-12 00:49:00,0.0,,,,,,,,,,,1.05,-25.29,-25.23,-66,559,-944,31.4,18.9,4.9,31.3,1.0,-31.5,5.73,2.28,-25.8,35.3
2012-06-12 00:50:00,0.0,,,,,,,,,,,1.02,-25.30,-25.04,-66,559,-944,31.4,18.8,4.8,31.3,1.0,-31.5,5.73,2.28,-25.8,35.3
2012-06-12 00:51:00,0.0,,,,,,,,,,,0.99,-25.31,-25.20,-66,559,-944,31.3,18.8,4.8,31.3,1.0,-31.5,5.73,2.30,-25.8,35.3
2012-06-12 00:52:00,0.0,,,,,,,,,,,0.93,-25.09,-25.41,-66,559,-944,31.4,18.8,4.8,31.3,1.0,-31.6,5.73,2.30,-25.8,35.3
2012-06-12 00:53:00,0.0,,,,,,,,,,,0.96,-23.64,-25.60,-66,559,-944,31.4,18.9,4.8,31.3,1.0,-31.3,5.73,2.28,-25.8,35.3
2012-06-12 00:54:00,0.0,,,,,,,,,,,0.96,-21.73,-25.74,-66,559,-944,31.4,19.0,4.9,31.3,1.1,-30.0,5.73,2.28,-25.8,35.2
2012-06-12 00:55:00,0.0,,,,,,,,,,,0.97,-19.80,-25.82,-66,559,-944,31.4,18.9,4.9,31.3,1.2,-29.1,5.73,2.28,-25.8,35.3
2012-06-12 00:56:00,0.0,,,,,,,,,,,0.96,-17.93,-25.88,-66,559,-944,31.3,18.7,4.7,31.3,1.2,-28.9,5.73,2.30,-25.9,35.3
2012-06-12 00:57:00,0.0,,,,,,,,,,,0.96,-16.16,-25.91,-66,559,-944,31.3,18.8,4.8,31.3,1.2,-28.9,5.73,2.29,-25.9,35.2
2012-06-12 00:58:00,0.0,,,,,,,,,,,0.93,-14.48,-25.94,-66,559,-944,31.3,18.7,4.7,31.3,1.2,-29.2,5.73,2.28,-25.9,35.1
2012-06-12 00:59:00,0.0,,,,,,,,,,,0.92,-12.88,-25.96,-66,559,-944,31.3,18.6,4.6,31.3,1.2,-29.4,5.73,2.28,-25.9,35.2
2012-06-12 01:00:00,0.0,,,,,,,,,,,0.92,-11.35,-25.97,-66,559,-944,31.3,18.7,4.7,31.3,1.1,-29.6,5.73,2.30,-25.9,35.2
2012-06-12 01:01:00,0.0,,,,,,,,,,,0.93,-9.91,-25.97,-66,559,-944,31.3,18.7,4.7,31.3,1.1,-29.9,5.73,2.30,-25.9,35.2
2012-06-12 01:02:00,0.0,,,,,,,,,,,0.93,-8.55,-25.98,-66,559,-944,31.3,18.5,4.5,31.3,1.1,-30.1,5.73,2.29,-25.9,35.1
2012-06-12 01:03:00,0.0,,,,,,,,,,,0.92,-7.26,-25.98,-66,559,-944,31.3,18.6,4.6,31.3,1.1,-30.2,5.73,2.28,-25.9,35.0
2012-06-12 01:04:00,0.0,,,,,,,,,,,0.94,-6.03,-25.99,-66,559,-944,31.3,18.5,4.6,31.3,1.1,-30.4,5.73,2.29,-25.9,35.1
2012-06-12 01:05:00,0.0,,,,,,,,,,,0.96,-4.86,-26.00,-66,559,-944,31.3,18.6,4.6,31.3,1.1,-30.4,5.73,2.30,-25.9,35.1
2012-06-12 01:06:00,0.0,,,,,,,,,,,0.95,-3.74,-25.99,-66,559,-944,31.3,18.5,4.5,31.3,1.0,-30.7,5.73,2.30,-25.9,35.1
2012-06-12 01:07:00,0.0,,,,,,,,,,,0.96,-2.69,-25.99,-66,559,-944,31.3,18.5,4.5,31.3,1.0,-30.8,5.73,2.29,-25.9,35.2
2012-06-12 01:08:00,0.0,,,,,,,,,,,0.96,-1.68,-25.99,-66,559,-944,31.3,18.5,4.6,31.2,1.0,-31.0,5.73,2.28,-25.8,35.2
2012-06-12 01:09:00,0.0,,,,,,,,,,,0.96,-0.73,-25.98,-66,559,-944,31.3,18.5,4.5,31.2,1.0,-31.0,5.73,2.30,-25.8,35.2
2012-06-12 01:10:00,0.0,,,,,,,,,,,0.97,0.18,-25.97,-66,559,-944,31.3,18.3,4.3,31.2,1.0,-31.1,5.73,2.30,-25.8,35.1
2012-06-12 01:11:00,0.0,,,,,,,,,,,0.97,1.04,-25.97,-66,559,-944,31.3,18.1,4.2,31.2,1.0,-31.2,5.73,2.30,-25.8,35.2
2012-06-12 01:12:00,0.0,,,,,,,,,,,0.97,1.85,-25.95,-66,559,-944,31.3,17.9,4.1,31.2,1.0,-31.3,5.73,2.28,-25.8,35.2
2012-06-12 01:13:00,0.0,1.8846,0.0008,399.62,0.17,2.5,9.0,138.08,30.08,24.63,36.34,0.97,2.59,-25.95,-66,559,-944,31.3,17.8,4.0,31.2,1.0,-31.3,5.73,2.28,-25.8,35.2
2012-06-12 01:14:00,0.0,1.8849,0.0008,399.53,0.18,5.6,13.4,138.08,30.08,24.63,36.35,0.96,3.14,-25.94,-66,559,-943,31.3,17.8,3.9,31.2,1.0,-31.4,5.73,2.30,-25.8,35.2
2012-06-12 01:15:00,0.0,1.8846,0.0008,399.60,0.24,6.3,14.3,138.07,30.08,24.64,36.35,0.96,3.54,-25.93,-66,559,-944,31.3,17.8,4.0,31.2,1.0,-31.6,5.73,2.30,-25.8,35.2
2012-06-12 01:16:00,0.0,,,,,,,,,,,0.97,4.04,-25.92,-66,559,-944,31.3,17.9,4.1,31.2,1.0,-31.6,5.73,2.29,-25.8,35.2
2012-06-12 01:17:00,0.0,,,,,,,,,,,0.96,4.54,-25.91,-66,559,-944,31.3,18.1,4.2,31.2,1.0,-31.6,5.73,2.28,-25.8,35.3
2012-06-12 01:18:00,0.0,,,,,,,,,,,0.95,5.12,-25.90,-66,559,-944,31.3,18.2,4.3,31.2,1.0,-31.6,5.73,2.29,-25.8,35.2
2012-06-12 01:19:00,0.0,,,,,,,,,,,0.96,5.69,-25.89,-66,559,-944,31.3,18.1,4.2,31.2,1.0,-31.5,5.73,2.31,-25.8,35.1
2012-06-12 01:20:00,0.0,,,,,,,,,,,0.96,6.22,-25.88,-66,559,-943,31.3,18.3,4.3,31.2,1.0,-31.6,5.73,2.30,-25.8,35.1
2012-06-12 01:21:00,0.0,,,,,,,,,,,0.96,6.72,-25.88,-66,559,-944,31.3,18.2,4.3,31.2,1.0,-31.6,5.73,2.28,-25.8,35.1
2012-06-12 01:22:00,0.0,,,,,,,,,,,0.96,7.19,-25.86,-66,559,-944,31.3,18.2,4.3,31.2,0.9,-31.7,5.73,2.28,-25.9,35.1
2012-06-12 01:23:00,0.0,,,,,,,,,,,0.96,7.65,-25.85,-66,559,-944,31.3,18.3,4.3,31.2,0.9,-31.9,5.73,2.30,-25.9,35.1
2012-06-12 01:24:00,0.0,,,,,,,,,,,0.96,8.11,-25.84,-66,559,-944,31.3,18.2,4.3,31.2,0.9,-31.9,5.73,2.31,-25.8,35.1
2012-06-12 01:25:00,0.0,,,,,,,,,,,0.95,8.55,-25.83,-66,559,-944,31.3,18.3,4.3,31.2,0.9,-31.9,5.73,2.29,-25.8,35.1
2012-06-12 01:26:00,0.0,,,,,,,,,,,0.97,8.98,-25.82,-66,559,-944,31.3,18.2,4.3,31.2,0.9,-31.9,5.73,2.28,-25.9,35.0
2012-06-12 01:27:00,0.0,,,,,,,,,,,0.96,9.39,-25.81,-66,559,-944,31.2,18.2,4.2,31.2,0.9,-31.9,5.73,2.28,-25.9,35.1
2012-06-12 01:28:00,0.0,,,,,,,,,,,0.97,9.79,-25.80,-66,559,-944,31.3,18.1,4.1,31.2,0.9,-31.9,5.73,2.30,-25.9,35.1
2012-06-12 01:29:00,0.0,,,,,,,,,,,0.97,10.17,-25.80,-66,559,-944,31.3,18.0,4.1,31.2,0.9,-31.9,5.73,2.30,-25.8,35.2
2012-06-12 01:30:00,0.0,,,,,,,,,,,0.97,10.55,-25.78,-66,559,-944,31.3,17.8,4.0,31.2,0.9,-32.0,5.73,2.29,-25.9,35.2
2012-06-12 01:31:00,0.0,,,,,,,,,,,0.98,10.91,-25.78,-66,559,-944,31.2,17.7,3.9,31.2,0.9,-31.8,5.73,2.28,-25.9,35.1
2012-06-12 01:32:00,0.0,,,,,,,,,,,0.95,11.26,-25.77,-66,559,-943,31.2,17.6,3.8,31.2,0.9,-31.9,5.73,2.29,-25.9,35.0
2012-06-12 01:33:00,0.0,,,,,,,,,,,0.95,11.60,-25.76,-66,559,-944,31.2,17.7,3.8,31.2,0.9,-31.9,5.73,2.31,-25.9,35.0
2012-06-12 01:34:00,0.0,,,,,,,,,,,0.98,11.92,-25.75,-66,559,-943,31.2,17.7,3.8,31.2,0.9,-31.9,5.73,2.30,-25.9,35.1
2012-06-12 01:35:00,0.0,,,,,,,,,,,0.98,12.23,-25.74,-66,559,-944,31.2,17.6,3.7,31.2,0.9,-31.9,5.73,2.28,-25.9,35.0
2012-06-12 01:36:00,0.0,,,,,,,,,,,0.96,12.54,-25.74,-66,559,-944,31.2,17.5,3.7,31.2,0.9,-32.0,5.73,2.28,-25.9,35.1
2012-06-12 01:37:00,0.0,,,,,,,,,,,0.97,12.83,-25.73,-66,559,-944,31.2,17.6,3.7,31.2,0.9,-32.0,5.73,2.30,-25.9,35.1
2012-06-12 01:38:00,0.0,,,,,,,,,,,0.96,13.11,-25.72,-66,559,-944,31.2,17.5,3.6,31.1,0.9,-31.9,5.73,2.30,-25.9,35.1
2012-06-12 01:39:00,0.0,,,,,,,,,,,0.96,13.38,-25.71,-66,559,-944,31.2,17.5,3.6,31.1,0.9,-31.9,5.73,2.29,-25.9,35.1
2012-06-12 01:40:00,0.0,,,,,,,,,,,0.96,13.63,-25.71,-66,559,-944,31.2,17.5,3.7,31.2,0.9,-31.9,5.73,2.27,-25.9,35.1
2012-06-12 01:41:00,0.0,,,,,,,,,,,0.98,13.88,-25.70,-66,559,-944,31.2,17.7,3.9,31.2,0.9,-31.9,5.73,2.29,-25.9,35.0
2012-06-12 01:42:00,0.0,,,,,,,,,,,0.98,14.12,-25.69,-66,559,-943,31.2,17.8,3.9,31.2,0.9,-31.9,5.73,2.31,-25.9,35.1
2012-06-12 01:43:00,0.0,,,,,,,,,,,0.94,14.35,-25.68,-66,559,-944,31.2,17.9,3.9,31.2,0.9,-31.9,5.73,2.30,-25.9,35.1
2012-06-12 01:44:00,0.0,,,,,,,,,,,0.97,14.57,-25.68,-66,559,-944,31.2,18.0,4.1,31.2,0.9,-31.9,5.73,2.28,-25.9,35.1
2012-06-12 01:45:00,0.0,,,,,,,,,,,0.96,14.78,-25.68,-66,559,-944,31.2,18.1,4.2,31.2,0.9,-31.8,5.73,2.28,-25.9,35.1
2012-06-12 01:46:00,0.0,,,,,,,,,,,0.98,14.98,-25.67,-66,559,-944,31.2,18.3,4.3,31.2,0.9,-31.9,5.73,2.30,-25.9,35.1
2012-06-12 01:47:00,0.0,,,,,,,,,,,0.97,15.17,-25.65,-66,559,-944,31.2,18.5,4.5,31.2,0.9,-31.9,5.73,2.31,-25.9,35.2
2012-06-12 01:48:00,0.0,,,,,,,,,,,0.99,15.35,-25.65,-66,559,-944,31.2,18.6,4.5,31.2,0.9,-31.9,5.73,2.29,-25.9,35.2
2012-06-12 01:49:00,0.0,,,,,,,,,,,0.97,15.52,-25.65,-66,559,-943,31.2,18.6,4.5,31.2,0.9,-31.9,5.73,2.28,-25.9,35.1
2012-06-12 01:50:00,0.0,,,,,,,,,,,0.99,15.69,-25.64,-66,559,-944,31.2,18.5,4.5,31.2,0.9,-31.9,5.73,2.29,-25.9,35.1
2012-06-12 01:51:00,0.0,,,,,,,,,,,0.97,15.85,-25.64,-66,559,-944,31.2,18.6,4.5,31.2,0.9,-31.9,5.73,2.31,-25.9,35.1
2012-06-12 01:52:00,0.0,,,,,,,,,,,0.97,16.00,-25.63,-66,559,-944,31.3,18.7,4.6,31.2,0.9,-31.8,5.73,2.30,-25.9,35.1
2012-06-12 01:53:00,0.0,,,,,,,,,,,0.97,16.15,-25.63,-66,559,-944,31.2,18.5,4.5,31.2,0.9,-32.0,5.73,2.28,-25.9,35.2
2012-06-12 01:54:00,0.0,,,,,,,,,,,0.98,16.29,-25.62,-66,559,-944,31.3,18.4,4.4,31.2,0.9,-31.8,5.73,2.28,-25.9,35.2
2012-06-12 01:55:00,0.0,,,,,,,,,,,0.97,16.43,-25.62,-66,559,-944,31.3,18.6,4.6,31.2,0.9,-31.9,5.73,2.30,-25.9,35.2
2012-06-12 01:56:00,0.0,,,,,,,,,,,0.97,16.56,-25.61,-66,559,-944,31.3,18.6,4.6,31.2,0.9,-31.9,5.73,2.30,-25.9,35.2
2012-06-12 01:57:00,0.0,,,,,,,,,,,0.97,16.68,-25.60,-66,559,-944,31.3,18.6,4.6,31.2,0.9,-31.9,5.73,2.29,-25.9,35.2
2012-06-12 01:58:00,0.0,,,,,,,,,,,0.97,16.80,-25.59,-66,559,-944,31.3,18.5,4.5,31.2,0.9,-31.9,5.73,2.28,-26.0,35.1
2012-06-12 01:59:00,0.0,,,,,,,,,,,0.97,16.91,-25.58,-66,559,-944,31.3,18.7,4.6,31.2,0.9,-31.8,5.73,2.29,-26.0,35.1
2012-06-12 02:00:00,0.0,,,,,,,,,,,0.97,17.02,-25.57,-66,559,-944,31.3,18.7,4.6,31.2,0.9,-31.9,5.73,2.31,-26.0,35.1
2012-06-12 02:01:00,0.0,,,,,,,,,,,0.96,17.13,-25.56,-66,559,-944,31.3,18.7,4.6,31.2,0.9,-31.8,5.73,2.30,-26.0,35.2
2012-06-12 02:02:00,0.0,,,,,,,,,,,0.97,17.22,-25.56,-66,559,-944,31.3,18.8,4.7,31.2,0.9,-31.9,5.73,2.28,-26.0,35.2
2012-06-12 02:03:00,0.0,,,,,,,,,,,0.97,17.32,-25.55,-66,559,-944,31.3,18.8,4.7,31.2,0.9,-31.9,5.73,2.29,-26.0,35.1
2012-06-12 02:04:00,0.0,,,,,,,,,,,0.97,17.41,-25.54,-66,559,-944,31.3,18.9,4.8,31.2,0.9,-31.9,5.73,2.30,-26.0,35.1
2012-06-12 02:05:00,0.0,,,,,,,,,,,0.98,17.49,-25.54,-66,559,-944,31.3,18.8,4.7,31.2,0.9,-31.9,5.73,2.31,-26.0,35.1
2012-06-12 02:06:00,0.0,,,,,,,,,,,0.97,17.58,-25.54,-66,559,-944,31.3,19.1,4.9,31.2,0.9,-31.9,5.73,2.29,-26.0,35.1
2012-06-12 02:07:00,0.0,,,,,,,,,,,0.97,17.65,-25.53,-66,559,-944,31.3,19.1,5.0,31.2,0.9,-31.9,5.73,2.28,-26.0,35.2
2012-06-12 02:08:00,0.0,,,,,,,,,,,0.97,17.73,-25.53,-66,559,-943,31.3,19.2,5.0,31.2,0.9,-31.8,5.73,2.29,-26.0,35.2
2012-06-12 02:09:00,0.0,,,,,,,,,,,0.96,17.80,-25.52,-66,559,-943,31.2,19.3,5.1,31.2,0.9,-31.9,5.73,2.31,-26.0,35.2
2012-06-12 02:10:00,0.0,,,,,,,,,,,0.98,17.88,-25.52,-66,559,-944,31.2,19.3,5.1,31.2,0.9,-31.9,5.73,2.29,-26.0,35.2
2012-06-12 02:11:00,0.0,,,,,,,,,,,0.98,17.94,-25.51,-66,559,-944,31.3,19.1,4.9,31.2,0.9,-31.9,5.73,2.28,-26.0,35.2
2012-06-12 02:12:00,0.0,,,,,,,,,,,0.96,18.00,-25.52,-66,559,-944,31.3,18.7,4.6,31.2,0.9,-31.8,5.73,2.28,-26.0,35.2
2012-06-12 02:13:00,0.0,1.8846,0.0008,399.62,0.17,2.5,9.0,138.08,30.08,24.63,36.34,0.98,18.06,-25.51,-66,559,-944,31.3,18.4,4.4,31.2,0.9,-31.7,5.73,2.31,-26.0,35.3
2012-06-12 02:14:00,0.0,1.8849,0.0008,399.53,0.18,5.6,13.4,138.08,30.08,24.63,36.35,0.98,18.12,-25.50,-66,559,-943,31.3,18.5,4.5,31.2,1.0,-31.6,5.73,2.30,-26.0,35.2
2012-06-12 02:15:00,0.0,1.8846,0.0008,399.60,0.24,6.3,14.3,138.07,30.08,24.64,36.35,0.97,18.18,-25.50,-66,559,-944,31.3,18.7,4.7,31.2,1.0,-31.6,5.73,2.28,-26.0,35.2
2012-06-12 02:16:00,0.0,,,,,,,,,,,0.99,18.23,-25.49,-66,559,-944,31.3,18.8,4.7,31.2,1.0,-31.6,5.73,2.28,-26.0,35.3
2012-06-12 02:17:00,0.0,,,,,,,,,,,0.97,18.29,-25.49,-66,559,-944,31.3,18.8,4.7,31.2,1.0,-31.6,5.73,2.30,-26.0,35.3
2012-06-12 02:18:00,0.0,,,,,,,,,,,0.98,18.34,-25.49,-66,559,-944,31.3,18.9,4.8,31.2,1.0,-31.6,5.73,2.31,-26.0,35.3
2012-06-12 02:19:00,0.0,,,,,,,,,,,0.98,18.38,-25.48,-66,559,-944,31.3,19.0,4.9,31.2,1.0,-31.6,5.73,2.29,-26.0,35.3
2012-06-12 02:20:00,0.0,,,,,,,,,,,0.99,18.42,-25.48,-66,559,-944,31.3,19.1,5.0,31.2,1.0,-31.6,5.73,2.28,-26.0,35.3
2012-06-12 02:21:00,0.0,,,,,,,,,,,0.97,18.47,-25.48,-66,559,-944,31.3,19.2,5.0,31.2,1.0,-31.6,5.73,2.30,-26.0,35.2
2012-06-12 02:22:00,0.0,,,,,,,,,,,0.97,18.51,-25.48,-66,559,-944,31.3,19.2,5.0,31.2,1.0,-31.6,5.73,2.31,-26.0,35.2
2012-06-12 02:23:00,0.0,,,,,,,,,,,0.98,18.55,-25.48,-66,559,-944,31.3,19.2,5.0,31.2,1.0,-31.6,5.73,2.30,-26.0,35.2
2012-06-12 02:24:00,0.0,,,,,,,,,,,0.98,18.59,-25.48,-66,559,-944,31.3,19.2,5.0,31.2,1.0,-31.6,5.73,2.28,-26.0,35.2
2012-06-12 02:25:00,0.0,,,,,,,,,,,0.99,18.62,-25.47,-66,559,-944,31.3,19.2,5.0,31.2,1.0,-31.6,5.73,2.28,-26.0,35.2
2012-06-12 02:26:00,0.0,,,,,,,,,,,0.98,18.65,-25.48,-66,559,-944,31.3,19.0,4.9,31.2,1.0,-31.6,5.73,2.30,-26.0,35.2
2012-06-12 02:27:00,0.0,,,,,,,,,,,0.97,18.68,-25.47,-66,559,-944,31.3,19.2,5.0,31.2,1.0,-31.6,5.73,2.30,-26.0,35.1
2012-06-12 02:28:00,0.0,,,,,,,,,,,0.98,18.72,-25.47,-66,559,-944,31.3,19.3,5.1,31.2,1.0,-31.6,5.73,2.29,-26.0,35.2
2012-06-12 02:29:00,0.0,,,,,,,,,,,0.99,18.74,-25.48,-66,559,-944,31.3,19.2,5.1,31.2,1.0,-31.6,5.73,2.28,-26.1,35.1
2012-06-12 02:30:00,0.0,,,,,,,,,,,0.98,18.77,-25.47,-66,559,-944,31.3,19.3,5.1,31.2,1.0,-31.6,5.73,2.29,-26.1,35.0
2012-06-12 02:31:00,0.0,,,,,,,,,,,1.00,18.80,-25.47,-66,559,-944,31.3,19.2,5.0,31.2,1.0,-31.5,5.73,2.31,-26.1,35.0
2012-06-12 02:32:00,0.0,,,,,,,,,,,0.98,18.83,-25.47,-66,559,-944,31.3,19.3,5.1,31.2,1.0,-31.6,5.73,2.30,-26.1,35.0
2012-06-12 02:33:00,0.0,,,,,,,,,,,0.99,18.85,-25.47,-66,559,-944,31.3,19.2,5.0,31.2,1.0,-31.6,5.73,2.28,-26.1,35.1
2012-06-12 02:34:00,0.0,,,,,,,,,,,0.98,18.88,-25.46,-66,559,-943,31.3,19.2,5.0,31.2,1.0,-31.5,5.73,2.28,-26.1,35.1
2012-06-12 02:35:00,0.0,,,,,,,,,,,0.98,18.90,-25.47,-66,559,-944,31.3,19.1,4.9,31.2,1.0,-31.6,5.73,2.30,-26.1,35.0
2012-06-12 02:36:00,0.0,,,,,,,,,,,0.98,18.92,-25.46,-66,559,-944,31.3,19.3,5.1,31.2,1.0,-31.6,5.73,2.31,-26.1,35.1
2012-06-12 02:37:00,0.0,,,,,,,,,,,0.96,18.94,-25.46,-66,559,-944,31.3,19.4,5.1,31.2,1.0,-31.6,5.73,2.29,-26.1,35.1
2012-06-12 02:38:00,0.0,,,,,,,,,,,0.98,18.96,-25.46,-66,559,-944,31.3,19.1,5.0,31.2,1.0,-31.6,5.73,2.28,-26.1,35.1
2012-06-12 02:39:00,0.0,,,,,,,,,,,0.97,18.99,-25.46,-66,559,-943,31.3,19.2,5.0,31.2,1.0,-31.5,5.73,2.29,-26.1,35.1
2012-06-12 02:40:00,0.0,,,,,,,,,,,0.97,19.01,-25.46,-66,559,-944,31.3,19.1,5.0,31.2,1.0,-31.6,5.73,2.31,-26.1,35.1
2012-06-12 02:41:00,0.0,,,,,,,,,,,0.97,19.03,-25.45,-66,559,-944,31.3,19.1,4.9,31.2,1.0,-31.6,5.73,2.29,-26.1,35.1
2012-06-12 02:42:00,0.0,,,,,,,,,,,0.98,19.05,-25.45,-66,559,-944,31.3,19.2,5.0,31.2,1.0,-31.6,5.73,2.28,-26.1,35.1
2012-06-12 02:43:00,0.0,,,,,,,,,,,0.97,19.06,-25.45,-66,559,-944,31.3,19.3,5.1,31.2,1.0,-31.6,5.73,2.29,-26.0,35.2
2012-06-12 02:44:00,0.0,,,,,,,,,,,0.97,19.09,-25.44,-66,559,-944,31.3,19.1,5.0,31.2,1.0,-31.5,5.73,2.30,-26.1,35.2
2012-06-12 02:45:00,0.0,,,,,,,,,,,0.97,19.10,-25.44,-66,559,-944,31.3,19.3,5.1,31.2,1.0,-31.6,5.73,2.31,-26.1,35.1
2012-06-12 02:46:00,0.0,,,,,,,,,,,0.97,19.11,-25.45,-66,559,-944,31.3,19.2,5.0,31.2,1.0,-31.5,5.73,2.28,-26.1,35.1
2012-06-12 02:47:00,0.0,,,,,,,,,,,0.97,19.12,-25.44,-66,559,-944,31.3,19.3,5.1,31.2,0.9,-31.6,5.73,2.28,-26.1,35.1
2012-06-12 02:48:00,0.0,,,,,,,,,,,0.96,19.14,-25.44,-66,559,-944,31.3,19.4,5.1,31.2,1.0,-31.5,5.73,2.30,-26.1,35.1
2012-06-12 02:49:00,0.0,,,,,,,,,,,0.98,19.14,-25.44,-66,559,-944,31.3,19.5,5.2,31.2,1.0,-31.6,5.73,2.31,-26.1,35.1
2012-06-12 02:50:00,0.0,,,,,,,,,,,1.14,18.40,-25.44,-66,559,-944,31.3,19.4,5.2,31.2,1.0,-31.6,5.73,2.29,-26.1,35.2
2012-06-12 02:51:00,0.0,,,,,,,,,,,1.14,16.36,-25.45,-66,559,-944,31.3,19.2,5.0,31.2,1.0,-31.6,5.73,2.28,-26.0,35.2
2012-06-12 02:52:00,0.0,,,,,,,,,,,1.01,14.05,-25.44,-66,559,-944,31.3,19.0,4.9,31.2,1.0,-31.6,5.73,2.29,-26.0,35.2
2012-06-12 02:53:00,0.0,,,,,,,,,,,1.07,11.73,-25.43,-66,559,-944,31.3,18.9,4.8,31.2,1.0,-31.5,5.73,2.31,-26.0,35.2
2012-06-12 02:54:00,0.0,,,,,,,,,,,1.14,9.47,-25.42,-66,559,-944,31.3,18.7,4.7,31.2,1.0,-31.6,5.73,2.30,-26.0,35.2
2012-06-12 02:55:00,0.0,,,,,,,,,,,1.07,7.30,-25.41,-66,559,-944,31.3,18.6,4.6,31.2,1.0,-31.6,5.73,2.28,-26.0,35.3
2012-06-12 02:56:00,0.0,,,,,,,,,,,1.05,5.23,-25.39,-66,559,-944,31.3,18.5,4.5,31.2,1.0,-31.5,5.73,2.28,-26.0,35.3
2012-06-12 02:57:00,0.0,,,,,,,,,,,1.12,3.28,-25.37,-66,559,-944,31.3,18.7,4.7,31.3,1.0,-31.6,5.73,2.31,-26.0,35.3
2012-06-12 02:58:00,0.0,,,,,,,,,,,1.11,1.42,-25.35,-66,559,-944,31.3,18.6,4.6,31.3,1.0,-31.5,5.73,2.30,-26.0,35.3
2012-06-12 02:59:00,0.0,,,,,,,,,,,1.02,-0.35,-25.33,-66,559,-944,31.4,18.5,4.6,31.3,1.0,-31.5,5.73,2.28,-26.0,35.3
2012-06-12 03:00:00,0.0,,,,,,,,,,,1.09,-2.01,-25.31,-66,559,-944,31.4,18.7,4.7,31.3,1.0,-31.5,5.73,2.28,-26.0,35.3
2012-06-12 03:01:00,0.0,,,,,,,,,,,1.13,-3.57,-25.30,-66,560,-944,31.4,18.6,4.7,31.3,1.0,-31.5,5.73,2.30,-25.9,35.4
2012-06-12 03:02:00,0.0,,,,,,,,,,,1.07,-5.03,-25.29,-66,559,-944,31.4,18.6,4.7,31.3,1.0,-31.5,5.73,2.30,-25.9,35.4
2012-06-12 03:03:00,0.0,,,,,,,,,,,1.02,-6.35,-25.28,-66,560,-944,31.4,18.7,4.8,31.3,1.0,-31.5,5.73,2.28,-25.9,35.3
2012-06-12 03:04:00,0.0,,,,,,,,,,,1.09,-7.54,-25.27,-66,560,-944,31.4,18.8,4.8,31.3,1.0,-31.5,5.73,2.27,-25.9,35.3
2012-06-12 03:05:00,0.0,,,,,,,,,,,1.12,-8.66,-25.26,-66,559,-944,31.4,18.7,4.7,31.3,1.0,-31.5,5.73,2.28,-26.0,35.3
2012-06-12 03:06:00,0.0,,,,,,,,,,,1.08,-9.75,-25.26,-66,560,-944,31.4,18.7,4.7,31.3,1.0,-31.5,5.73,2.30,-25.9,35.3
2012-06-12 03:07:00,0.0,,,,,,,,,,,1.02,-10.80,-25.26,-66,559,-944,31.4,18.7,4.8,31.3,1.0,-31.4,5.73,2.29,-25.9,35.3
2012-06-12 03:08:00,0.0,,,,,,,,,,,1.29,-30.87,-44.33,-66,560,-944,31.4,18.7,4.7,31.4,1.0,-31.5,5.41,2.35,-30.2,35.4
2012-06-12 03:09:00,0.0,,,,,,,,,,,1.11,-12.68,-25.25,-66,560,-944,31.4,18.6,4.7,31.4,1.0,-31.5,5.73,2.29,-25.9,35.4
2012-06-12 03:10:00,0.0,,,,,,,,,,,1.08,-13.61,-25.25,-66,560,-944,31.5,18.7,4.8,31.4,1.0,-31.5,5.73,2.30,-25.9,35.4
2012-06-12 03:11:00,0.0,,,,,,,,,,,1.01,-14.45,-25.25,-66,560,-944,31.5,18.7,4.8,31.4,0.9,-31.6,5.73,2.29,-25.9,35.3
2012-06-12 03:12:00,0.0,,,,,,,,,,,1.05,-15.28,-25.26,-66,560,-944,31.4,18.7,4.8,31.4,1.0,-31.5,5.73,2.28,-26.0,35.2
2012-06-12 03:13:00,0.0,1.8846,0.0008,399.62,0.17,2.5,9.0,138.08,30.08,24.63,36.34,1.12,-16.03,-25.26,-66,559,-944,31.4,18.6,4.7,31.3,0.9,-31.6,5.73,2.27,-26.0,35.3
2012-06-12 03:14:00,0.0,1.8849,0.0008,399.53,0.18,5.6,13.4,138.08,30.08,24.63,36.35,1.09,-16.74,-25.27,-66,560,-944,31.5,18.8,4.8,31.3,1.0,-31.5,5.73,2.29,-25.9,35.3
2012-06-12 03:15:00,0.0,1.8846,0.0008,399.60,0.24,6.3,14.3,138.07,30.08,24.64,36.35,1.02,-17.42,-25.27,-66,560,-944,31.5,18.7,4.8,31.4,1.0,-31.5,5.73,2.30,-25.9,35.3
2012-06-12 03:16:00,0.0,,,,,,,,,,,1.03,-18.04,-25.27,-66,560,-944,31.5,18.4,4.6,31.4,1.0,-31.5,5.73,2.27,-25.9,35.4
2012-06-12 03:17:00,0.0,,,,,,,,,,,1.09,-18.61,-25.28,-66,560,-944,31.5,18.3,4.5,31.4,1.0,-31.5,5.73,2.27,-25.9,35.4
2012-06-12 03:18:00,0.0,,,,,,,,,,,1.10,-19.16,-25.29,-66,560,-944,31.5,18.2,4.4,31.4,1.0,-31.5,5.73,2.29,-25.9,35.4